Regional Weather Roundup
Issued by NWS

Home | Current Version | Previous Version | Graphics & Text | Print | Product List | Glossary On
Versions: 1 2 3 4 5 6 7 8 9 10 11 12 13 14 15 16 17 18 19 20 21 22 23 24 25 26 27 28 29 30 31 32 33 34 35 36 37 38 39 40 41 42 43 44 45 46 47 48 49 50
806
ASUS44 KJAN 291403
RWRMS

MISSISSIPPI HOURLY WEATHER ROUNDUP
NATIONAL WEATHER SERVICE JACKSON MS
900 AM CDT TUE JUL 29 2014

NOTE: "FAIR: INDICATES FEW OR NO CLOUDS BELOW 12,000 FEET WITH NO
SIGNIFICANT WEATHER AND/OR OBSTRUCTIONS TO VISIBILITY.

MSZ001>002-007>008-010>013-018>021-025>028-034>036-291500-
NORTHWEST MISSISSIPPI

CITY           SKY/WX    TMP DP  RH WIND       PRES   REMARKS
CLARKSDALE     FAIR      73  66  78 N9        30.14S
CLEVELAND      FAIR      74  68  79 NE10      30.11S
GREENWOOD      PTSUNNY   73  68  84 N7        30.11R
GREENVILLE     SUNNY     75  69  81 N8        30.10R
GRENADA        PTSUNNY   72  63  73 NE5       30.12R
OLIVE BRANCH   MOSUNNY   70  61  73 NE9       30.14R
OXFORD         FAIR      70  61  73 N7        30.14R
TUNICA         SUNNY     72  59  64 NE7       30.14R
$$

MSZ003>006-009-014>017-022>024-029>033-037>039-291500-
NORTHEAST MISSISSIPPI

CITY           SKY/WX    TMP DP  RH WIND       PRES   REMARKS
BELMONT        FAIR      69  61  75 N6        30.11R
COLUMBUS AFB   PTSUNNY   71  64  77 N8        30.10R
CORINTH        FAIR      68  55  64 NE6       30.12S
GOLDN TRIANGLE PTSUNNY   73  63  68 N8        30.10R
STARKVILLE     CLOUDY    70  63  78 CALM      30.10R
TUPELO         CLOUDY    70  60  70 NE12      30.11R
$$

MSZ040-058-291500-
CENTRAL MISSISSIPPI

CITY           SKY/WX    TMP DP  RH WIND       PRES   REMARKS
JACKSON INTL   SUNNY     79  67  66 N7        30.09S
JACKSON HAWKNS SUNNY     78  64  61 CALM      30.10R
MERIDIAN KEY   SUNNY     76  65  68 NW5       30.08S
MERIDIAN NAS   SUNNY     77  64  64 NW6       30.08S
RAYMOND        FAIR      75  70  83 CALM      30.10R
VICKSBURG      SUNNY     78  69  73 N3        30.10R
$$

MSZ059>079-291500-
SOUTH MISSISSIPPI

CITY           SKY/WX    TMP DP  RH WIND       PRES   REMARKS
BROOKHAVEN     FAIR      75  66  73 N5        30.12R
COLUMBIA       FAIR      77  68  73 NE3       30.07R
HATTIESBURG    SUNNY     79  66  64 NE6       30.08R
MCCOMB         SUNNY     78  65  63 N6        30.10R
NATCHEZ        SUNNY     75  66  73 NE5       30.11S
PINE BELT      SUNNY     77  64  65 NE6       30.09S
$$

MSZ080>082-291500-
COASTAL MISSISSIPPI

CITY           SKY/WX    TMP DP  RH WIND       PRES   REMARKS
BAY ST LOUIS   SUNNY    N/A N/A N/A N6        30.06R
BILOXI         PTSUNNY   80  66  61 NE10      30.05S
PASCAGOULA     MOSUNNY   80  67  64 NE8       30.05R
GULFPORT       PTSUNNY   83  66  56 N10       30.05R
$$



USA.gov is the U.S. government's official web portal to all federal, state and local government web resources and services.